Theta_e
293 293 293 292 292 291 291 291 290 290 290 290 290 289 289 289 289 288 288 287 287 286 286 286 285 286 285 285 284 284 284 283 283 283 282 281 281 280 280 279 279 279 278 278 278 278 277 277 277 276 276 276 276 275 275 275 276 276 276 276 277 277 277 278 278 278 278 278 278 277 277 276 275 275 274 274 275 275 276 275 276 275 276 276 277
294 293 292 292 291 291 291 290 290 290 290 289 289 289 289 288 288 288 287 287 286 286 286 285 285 286 285 285 284 284 283 283 283 282 281 281 280 280 279 279 278 278 278 277 277 277 276 276 275 275 275 274 274 274 274 274 274 274 274 274 274 274 275 275 275 276 276 276 276 275 275 274 274 274 274 274 274 274 274 274 274 275 275 276 277
293 293 292 292 291 291 290 290 289 289 289 289 289 288 288 288 287 287 287 286 286 285 285 285 285 285 285 285 284 283 283 283 282 281 281 280 280 279 279 278 278 277 277 276 276 275 275 275 275 274 274 273 273 273 272 272 272 272 272 273 273 273 273 273 274 274 274 274 274 274 274 274 274 274 274 274 274 274 274 274 274 274 275 276 276
293 292 292 291 291 290 290 289 289 288 289 288 288 287 287 287 287 286 286 286 285 285 285 285 285 285 285 284 284 283 283 282 281 281 280 280 280 279 278 278 277 276 276 275 275 274 274 274 274 273 273 272 272 272 272 272 272 272 272 272 272 272 272 272 273 273 273 273 273 273 273 273 274 274 274 274 274 274 274 274 274 274 275 275 276
293 292 292 291 291 290 289 289 288 288 288 287 287 287 286 286 286 285 285 285 285 284 284 284 285 285 285 284 283 283 283 282 281 280 280 280 279 279 278 277 276 276 275 275 274 274 273 273 273 273 272 272 272 272 272 272 272 272 271 272 272 272 272 272 272 273 273 273 273 274 273 273 274 274 274 274 274 274 274 274 274 274 275 275 275
293 292 291 291 290 290 289 288 288 287 287 286 286 286 285 285 285 284 284 284 284 284 284 284 284 285 284 283 283 283 282 281 280 280 279 279 279 278 277 277 276 275 274 274 273 273 273 273 273 272 272 272 272 272 272 272 272 272 272 272 272 272 272 272 273 273 273 273 273 274 274 274 274 274 274 274 274 274 274 274 275 275 275 275 276
292 291 291 290 290 289 289 288 287 287 286 286 285 285 284 284 284 284 284 284 284 284 284 284 284 284 283 283 282 282 281 280 279 279 279 279 278 277 277 276 275 274 273 273 273 273 273 272 272 272 272 272 272 272 272 272 272 272 272 272 272 272 272 273 273 273 273 273 273 274 274 274 274 274 274 274 274 275 275 275 275 275 275 276 276
291 291 290 290 289 289 288 288 287 286 286 285 284 284 284 283 283 283 283 283 283 284 284 283 283 282 282 282 281 281 280 279 279 279 279 278 278 277 277 276 274 273 273 273 273 273 273 273 273 273 273 273 273 273 273 273 273 273 273 273 273 273 273 273 273 273 274 274 274 274 274 275 275 274 275 275 275 275 275 275 275 275 276 276 276
291 290 290 289 289 289 288 287 286 285 285 284 283 283 283 283 283 283 283 283 283 283 283 283 282 281 280 280 280 279 279 279 279 279 279 278 278 277 276 275 274 273 273 273 273 273 273 273 273 273 273 273 274 274 274 274 275 275 275 275 275 275 274 274 274 274 274 274 274 274 274 275 275 275 275 275 275 275 275 276 275 275 276 276 276
290 290 289 289 289 288 287 286 285 285 284 283 283 282 282 282 282 282 282 282 282 282 281 281 281 280 280 279 279 279 279 279 279 279 279 278 277 276 275 274 273 273 273 273 273 273 273 274 274 274 274 274 274 275 275 275 276 276 276 276 276 276 276 276 275 275 275 275 275 275 275 275 275 276 276 276 276 276 276 276 276 276 276 276 276
290 289 289 289 288 287 287 286 284 284 283 283 282 281 281 281 281 281 281 281 281 281 280 280 279 280 280 279 279 278 278 279 279 279 278 277 277 276 275 274 274 273 274 274 274 274 274 274 274 274 274 274 274 274 274 275 275 275 276 276 276 277 277 277 277 277 277 277 276 276 277 277 277 277 277 276 276 276 276 276 276 276 277 277 277
289 289 288 288 287 287 286 285 284 283 283 282 281 281 281 281 280 280 280 280 280 279 279 279 279 279 278 278 278 278 278 279 279 278 277 277 276 276 275 274 274 274 274 274 274 274 274 274 274 274 273 273 274 274 274 274 275 275 276 276 276 277 277 277 277 278 278 278 278 277 277 277 277 277 277 277 276 276 276 276 277 277 277 277 278
289 288 288 287 286 286 285 284 283 282 282 281 281 280 280 280 280 280 279 279 279 279 278 278 278 278 278 278 278 278 278 279 278 277 276 276 276 277 276 275 275 275 275 275 275 275 274 274 273 273 273 273 273 274 274 274 275 275 275 276 276 276 277 277 277 277 278 278 277 277 277 277 277 277 277 276 276 276 276 276 276 276 276 277 277
288 288 287 286 286 285 284 284 283 282 281 281 280 280 280 280 279 279 279 279 278 278 277 277 277 277 278 278 278 278 278 278 277 276 276 276 277 277 276 276 275 275 275 275 275 274 273 273 273 273 273 273 274 274 274 275 275 275 276 276 276 277 277 277 277 277 277 277 277 277 276 276 276 276 276 276 276 276 276 276 276 276 276 276 276
288 287 286 286 285 284 284 283 282 281 281 280 280 279 279 279 278 278 278 278 278 278 277 277 277 278 278 278 278 278 278 277 276 276 275 276 276 277 276 276 275 275 275 274 274 273 273 273 273 273 273 274 274 274 275 276 276 276 277 277 277 276 276 276 276 276 276 276 276 276 276 276 276 276 276 276 276 276 276 276 276 276 276 276 276
287 286 286 285 285 284 283 283 282 281 280 280 279 279 278 278 278 277 277 277 276 276 276 277 277 277 277 278 278 278 278 276 276 275 275 275 276 276 276 275 275 275 274 273 273 273 273 273 273 274 274 274 275 275 276 276 276 276 276 277 277 277 276 276 276 276 276 276 276 276 276 276 277 277 277 277 277 277 277 277 276 276 276 277 277
286 286 286 285 284 284 283 282 281 281 280 279 278 278 278 277 277 277 276 275 275 274 275 276 277 278 278 278 278 278 277 276 275 275 274 275 276 276 275 275 274 274 273 273 273 273 273 274 274 274 274 275 275 276 276 276 276 276 277 277 277 276 276 276 275 275 275 275 275 276 276 276 277 277 277 277 278 278 278 278 278 278 278 278 278
286 286 286 285 284 284 283 282 281 280 279 278 278 277 277 276 276 276 276 275 274 274 275 276 277 277 278 278 278 277 277 275 275 274 274 274 275 275 274 274 274 274 274 273 273 274 274 274 275 275 275 275 275 275 275 276 276 277 276 276 276 276 275 275 274 273 274 274 275 275 275 275 275 275 275 276 276 277 278 278 278 278 278 278 278
287 286 286 285 284 283 283 282 281 280 279 278 278 277 276 276 275 275 275 274 274 274 275 275 275 276 277 277 277 276 276 275 274 274 273 274 275 274 274 274 274 273 274 274 274 274 275 275 275 275 275 274 274 275 276 276 276 276 275 275 275 275 274 273 273 274 274 274 272 272 272 272 272 273 273 274 275 276 276 277 277 278 278 278 278
287 287 286 285 284 283 282 281 281 280 279 278 277 277 276 275 274 274 274 274 274 274 274 274 275 275 275 276 275 275 275 274 273 273 273 274 275 275 274 274 274 274 274 274 274 275 275 275 274 274 273 273 274 275 275 275 275 275 275 274 273 273 273 273 274 274 272 271 270 270 270 271 271 272 273 274 275 276 276 277 277 277 278 278 278
287 286 285 284 283 282 282 281 280 279 278 277 276 276 275 274 274 273 273 273 272 272 272 273 273 273 274 274 274 275 275 274 273 273 273 274 275 275 275 274 274 274 274 274 275 275 275 274 273 272 272 273 274 275 274 274 274 274 273 272 272 273 274 274 273 271 269 269 269 269 270 270 271 271 272 273 275 276 277 277 278 278 278 278 278
286 285 284 283 283 282 281 280 280 278 277 277 276 275 274 273 273 273 272 272 272 271 271 271 271 271 271 272 273 273 274 273 273 273 273 274 275 275 275 274 274 275 275 275 275 274 273 272 272 272 273 274 274 274 273 273 273 272 271 272 273 273 273 272 270 269 268 269 269 269 270 270 271 271 272 272 273 275 276 277 278 278 278 278 278
285 284 283 282 282 281 280 279 278 277 277 276 275 274 273 273 272 272 272 271 271 270 270 270 270 269 269 270 271 272 272 272 272 272 273 274 274 275 275 275 275 276 275 275 274 273 272 271 272 272 273 273 273 272 272 272 271 271 271 272 272 272 271 269 268 268 268 269 269 270 270 270 270 271 271 272 272 273 274 275 276 276 277 277 278
284 283 282 281 281 280 279 278 277 276 276 275 274 273 272 272 271 271 271 271 270 270 269 269 269 269 269 269 270 271 271 271 272 272 272 273 274 274 275 275 275 275 275 274 273 272 271 272 272 272 272 272 271 271 271 270 270 270 271 271 271 269 268 267 267 268 268 269 269 270 270 270 270 271 271 271 272 272 272 273 273 274 274 275 276
283 282 281 280 279 278 278 277 276 275 275 274 273 272 271 271 270 270 271 270 270 270 269 269 269 269 269 270 270 270 270 271 271 271 272 273 273 274 275 275 275 274 274 273 272 272 272 272 272 271 270 270 270 269 268 268 268 269 269 269 268 267 267 267 267 268 268 269 269 270 270 270 270 271 271 271 271 271 272 272 273 273 273 274 275
282 281 279 279 278 277 276 275 275 274 274 273 273 272 271 271 270 270 270 270 270 270 269 269 270 270 270 270 270 270 270 270 270 271 272 272 273 274 274 274 274 273 273 272 272 272 272 271 270 269 268 268 268 268 267 267 268 268 268 267 267 266 266 267 267 268 269 269 269 269 269 270 270 270 270 271 271 271 272 272 272 273 273 274 275
280 279 278 277 276 276 275 274 273 273 273 272 272 271 271 271 270 270 270 269 270 270 270 270 270 270 270 270 270 270 270 270 270 271 271 272 272 273 273 273 273 273 272 271 271 271 271 270 269 268 267 267 267 267 266 266 266 266 266 266 266 266 266 267 267 268 268 268 269 269 269 269 270 270 270 271 271 271 272 272 272 272 272 273 273
280 278 277 276 275 274 274 273 272 272 272 271 271 270 270 270 271 270 270 271 271 270 270 270 270 270 271 270 270 270 270 270 270 271 272 272 272 272 272 272 272 272 271 270 270 270 269 269 268 267 266 266 266 265 265 265 265 265 265 265 266 266 266 267 267 267 268 268 268 269 269 269 269 270 270 271 271 271 271 271 271 271 271 272 272
279 278 276 275 274 273 273 273 272 271 271 270 270 270 270 270 271 271 271 272 273 273 272 271 271 271 271 270 270 270 270 270 271 272 272 273 273 273 273 272 272 271 271 270 270 269 268 268 267 266 265 265 264 264 264 264 264 264 265 265 265 266 266 266 267 267 267 268 268 268 269 269 270 270 271 271 271 271 271 271 271 271 271 271 272
278 277 275 274 273 273 272 272 271 271 270 270 269 270 270 270 271 271 271 272 273 273 273 273 272 272 271 271 271 271 270 271 272 273 273 273 274 273 272 272 272 271 270 269 269 268 267 266 265 265 264 264 263 263 264 264 264 264 264 265 265 265 266 266 266 267 267 267 268 268 269 269 270 271 271 271 271 271 271 270 270 271 271 271 271
277 276 274 273 272 272 271 271 270 270 270 269 269 269 270 270 271 271 271 272 272 272 272 272 272 272 271 271 271 271 272 272 273 273 273 273 273 273 272 272 272 270 269 268 267 266 265 265 264 264 263 263 263 263 263 263 263 264 264 264 264 265 265 266 266 266 267 267 268 268 269 269 270 271 271 271 271 271 270 270 270 270 270 270 270
277 276 274 273 272 271 271 271 270 270 270 269 269 270 270 271 271 272 272 273 273 273 273 273 272 272 271 271 271 271 272 273 273 273 273 273 272 272 271 271 270 269 268 267 267 266 264 264 263 263 263 263 263 263 263 263 263 263 263 264 264 265 265 265 266 266 267 267 268 268 269 269 270 271 271 270 270 270 270 270 269 269 270 270 270
278 276 274 273 271 271 270 270 270 270 270 269 270 270 271 271 272 273 273 274 274 274 274 273 273 272 272 271 271 272 273 273 273 273 272 272 272 271 271 270 269 267 267 267 266 265 264 263 263 262 262 262 262 262 262 262 262 263 263 263 264 264 265 265 266 266 266 267 268 268 269 270 270 271 270 270 270 270 269 269 269 269 269 269 270
278 277 275 273 271 270 270 270 270 270 270 270 270 271 271 272 272 273 274 274 274 274 274 274 273 273 272 272 272 273 273 273 273 272 272 271 270 270 269 268 267 266 266 266 265 264 263 262 262 262 262 261 261 261 261 262 262 262 263 263 263 264 264 265 265 266 267 267 268 268 269 269 270 270 270 270 270 269 269 269 269 269 269 269 270
278 276 274 273 272 271 270 270 270 270 270 270 270 271 271 272 273 273 274 274 274 274 274 274 274 273 273 273 273 273 273 273 272 272 271 270 269 268 267 267 266 265 265 265 264 263 262 262 262 262 262 261 261 261 261 261 261 262 262 262 263 263 264 264 265 266 267 268 268 268 269 270 270 270 270 270 269 269 269 269 269 269 269 269 269
277 275 273 272 272 271 270 270 270 270 270 270 271 271 271 272 272 273 273 273 273 272 273 273 274 273 273 273 273 273 273 272 271 271 269 268 267 267 267 266 266 265 264 264 263 262 262 262 262 262 261 261 260 260 260 260 261 261 262 262 263 263 263 264 265 266 267 268 268 268 269 270 270 270 270 269 269 269 269 269 268 269 269 269 269
276 275 273 272 271 271 270 270 270 270 270 270 271 271 271 271 272 272 272 271 271 270 271 271 272 272 272 272 273 273 272 271 270 269 267 267 266 266 266 266 265 264 264 263 262 262 262 262 262 261 261 260 260 260 260 260 261 261 261 262 262 263 263 265 266 267 267 267 268 269 269 270 270 270 269 269 269 269 269 268 268 269 269 269 269
276 275 273 272 271 271 270 270 270 270 270 270 270 271 271 271 271 271 270 269 269 269 269 269 270 270 270 271 272 272 270 269 268 267 266 265 265 265 265 265 264 264 263 263 262 263 263 263 262 262 261 261 261 261 260 260 260 261 261 261 262 263 264 265 266 266 267 267 268 269 270 270 270 269 269 269 269 269 269 268 268 268 269 269 269
275 274 273 272 271 271 270 270 270 270 270 270 270 270 270 270 270 269 268 268 268 267 267 268 268 268 268 269 269 269 268 267 266 265 264 264 264 264 264 264 264 263 262 262 263 263 263 263 262 262 262 261 261 261 261 261 261 261 261 261 262 263 264 265 265 266 267 268 268 269 270 270 270 269 269 269 269 269 268 268 268 268 268 269 269
275 273 272 271 271 270 270 270 270 270 269 269 269 269 269 269 268 268 267 267 266 266 266 266 266 266 267 268 268 268 267 266 265 264 264 264 264 264 264 264 263 262 262 262 263 263 263 263 262 262 262 262 262 262 261 261 261 261 261 261 262 263 264 265 265 266 267 268 269 270 270 270 269 269 268 268 268 269 268 268 268 268 268 268 269
273 272 271 271 271 270 270 270 269 269 269 268 268 268 268 268 267 267 266 266 265 265 265 265 265 265 266 267 267 267 266 265 264 264 264 264 263 263 263 263 262 262 262 262 262 262 262 263 262 262 262 262 262 262 262 262 261 261 261 261 262 263 264 265 266 266 267 268 269 270 270 270 269 268 268 268 268 268 268 268 268 268 268 268 268
272 271 271 271 270 270 269 269 268 268 268 267 267 267 267 267 266 266 265 265 264 264 264 263 264 265 266 267 266 266 265 265 264 264 263 263 263 263 263 262 262 262 262 262 262 262 262 263 262 262 262 262 263 262 262 262 262 262 261 261 262 263 264 265 266 267 267 268 269 270 270 270 269 268 268 268 268 268 268 268 268 268 268 268 268
271 271 271 270 269 269 268 268 267 267 267 267 267 266 266 266 265 265 264 264 263 263 263 262 263 265 267 267 266 265 264 264 264 263 263 263 263 263 262 262 262 262 262 262 262 262 262 262 263 262 262 263 263 263 263 263 262 262 261 261 262 263 264 265 266 267 267 269 270 270 270 269 268 268 268 268 268 268 268 268 268 268 268 268 268
270 270 269 269 268 268 267 267 267 267 266 266 265 265 265 265 264 264 263 263 262 262 262 262 264 265 266 266 265 264 263 263 263 263 263 263 262 262 262 262 262 262 262 262 262 262 262 262 262 262 263 263 263 264 264 264 263 263 262 262 262 263 264 265 266 267 268 269 270 270 270 269 268 268 267 268 268 268 268 268 268 268 268 268 268
269 269 268 268 267 267 267 266 266 266 265 264 264 264 264 264 263 263 262 262 262 262 262 262 263 264 265 264 264 263 263 263 263 263 263 262 262 262 262 262 262 262 262 262 262 262 262 262 262 262 263 263 264 264 264 264 264 264 264 263 263 263 264 265 266 267 269 270 270 270 269 268 268 267 267 267 268 267 268 268 268 267 268 268 268
268 268 267 267 266 266 266 265 265 264 264 263 263 263 263 263 262 262 262 261 261 261 261 261 262 263 263 263 262 262 262 262 262 262 262 262 262 262 262 262 262 262 262 262 262 262 262 262 262 262 262 263 264 264 264 264 264 264 264 264 264 264 265 266 267 268 269 270 270 270 269 268 267 267 267 267 267 267 267 267 267 267 267 267 268
267 267 266 266 265 265 264 264 263 263 263 262 262 262 262 262 262 261 261 261 261 260 260 261 262 262 262 262 262 262 262 262 262 262 262 262 262 262 262 262 262 262 262 262 262 262 262 262 262 262 262 263 264 264 264 264 264 265 265 265 265 265 266 266 268 269 270 270 270 269 269 268 267 267 267 267 267 267 267 267 267 267 267 267 267
266 266 266 265 264 263 263 263 263 262 262 262 261 261 261 261 261 260 260 260 260 260 260 261 261 262 262 262 262 262 262 262 262 262 263 263 262 262 262 262 262 262 262 262 262 262 262 262 262 262 262 263 263 264 264 264 264 265 265 265 265 266 266 267 268 269 270 270 270 269 268 268 267 267 267 267 267 267 267 267 267 267 267 267 267
266 265 264 264 263 263 263 262 262 262 261 261 260 260 260 260 260 260 260 260 260 261 261 261 261 262 262 262 262 262 262 262 263 263 263 263 262 262 262 262 262 262 262 262 262 262 262 262 262 262 262 263 263 264 264 264 264 265 265 265 266 266 266 268 269 270 270 270 269 269 268 267 267 267 267 267 267 267 267 267 267 267 267 267 267
264 264 263 263 263 262 262 262 261 261 260 260 260 259 259 259 259 259 260 260 260 261 261 261 262 262 262 262 262 262 262 262 263 263 263 262 262 262 262 262 262 262 262 262 262 262 262 262 262 262 263 263 263 264 264 264 264 264 265 265 265 266 267 268 269 269 269 269 269 269 268 267 267 267 267 267 267 267 267 267 267 267 267 267 267
263 262 262 262 262 261 261 261 260 260 260 260 260 259 259 259 259 259 260 261 261 261 261 261 261 262 262 262 262 262 262 262 263 262 262 262 262 262 262 262 262 263 263 263 263 262 262 262 262 263 263 263 263 263 264 264 264 264 265 265 265 266 267 268 269 269 269 269 269 268 268 267 267 267 266 266 266 267 267 267 267 267 266 267 267
Wind_Speed
42 43 44 43 42 42 43 43 42 42 42 42 42 42 42 43 42 41 40 40 39 37 36 34 32 29 27 24 21 19 17 15 13 12 12 12 12 12 12 12 14 15 16 17 17 16 16 16 15 15 14 14 15 15 16 17 17 18 18 19 20 18 19 21 15 23 43 47 41 43 43 46 52 45 40 45 43 37 38 40 39 41 45 46 44
45 45 43 41 42 42 41 40 40 40 41 42 42 43 43 43 43 42 41 41 40 38 37 34 32 29 26 24 22 20 17 15 14 13 13 13 13 13 13 14 15 16 16 17 17 15 15 16 15 16 15 15 16 16 17 18 17 19 19 19 22 22 19 23 21 20 35 45 42 46 49 44 46 46 40 41 45 41 40 43 44 43 43 43 43
42 40 39 39 41 39 37 37 39 39 40 41 41 41 41 42 42 42 42 41 39 38 36 34 32 29 27 24 23 21 19 17 16 15 15 14 14 14 14 15 15 16 16 16 16 16 15 16 16 16 16 16 17 17 17 18 18 19 21 20 21 23 20 21 24 23 29 41 45 47 49 43 42 45 42 42 47 45 42 42 44 44 43 42 44
38 37 38 39 38 37 37 38 38 39 40 40 40 39 39 39 41 41 42 41 40 38 36 34 32 30 28 26 25 22 20 18 17 16 15 15 14 14 14 14 15 15 16 17 16 16 15 16 16 16 16 16 18 18 17 18 20 19 21 22 20 22 23 22 25 27 28 35 43 45 45 45 45 44 41 42 47 45 43 42 41 43 45 43 43
38 39 39 38 37 38 38 38 39 40 40 39 38 38 38 38 39 40 40 40 40 38 36 34 32 31 29 28 25 23 20 18 17 16 15 14 14 14 13 14 15 15 16 16 15 15 15 15 16 15 16 17 18 19 19 20 22 23 22 24 23 24 26 26 27 29 30 33 39 44 44 43 45 45 39 38 44 43 44 47 43 40 44 45 44
40 40 40 39 39 39 38 39 40 40 40 38 37 37 37 38 39 39 40 40 39 38 37 35 34 32 30 27 24 22 20 18 17 16 15 14 14 13 13 14 15 15 15 15 14 14 14 15 15 15 15 17 18 19 22 23 24 25 25 26 29 28 28 27 27 29 32 34 36 40 44 42 42 45 41 37 40 40 41 49 48 41 39 41 42
40 40 39 38 38 38 39 40 40 39 39 37 36 37 37 38 39 39 39 40 39 39 37 36 34 32 29 26 23 21 20 18 17 15 15 14 14 13 14 14 15 15 14 14 13 13 14 14 15 16 15 17 19 20 23 25 26 29 29 30 31 28 25 25 26 28 31 34 34 35 40 43 41 42 42 39 39 38 36 38 42 43 39 36 39
38 38 38 37 38 39 40 40 39 39 38 36 36 37 38 39 40 40 40 40 40 39 38 36 33 30 27 25 23 21 20 18 17 16 15 14 14 14 14 14 14 14 13 13 13 13 14 14 14 16 17 17 19 21 23 26 28 30 30 29 28 27 27 27 27 27 29 31 33 32 32 37 38 36 37 36 34 34 34 33 35 41 44 41 42
37 37 36 38 39 39 38 37 37 37 37 37 38 38 39 40 40 40 40 40 39 38 37 35 32 30 26 24 22 21 20 19 16 16 15 15 14 14 14 13 12 12 12 12 13 13 13 15 15 16 16 16 18 20 23 25 26 27 27 25 25 26 28 30 28 26 26 25 27 28 27 29 31 30 29 30 31 34 38 37 35 40 46 48 48
36 36 37 39 38 36 36 37 37 38 38 38 39 39 39 39 40 40 40 39 38 37 35 33 31 29 27 24 23 22 20 18 16 16 15 14 14 14 13 12 10 11 11 11 12 13 13 14 15 15 14 16 18 20 23 25 26 28 28 27 27 27 27 28 26 25 25 22 22 23 21 22 27 27 27 32 34 35 38 36 34 37 39 38 41
35 36 37 36 35 35 36 37 37 38 39 39 38 39 39 40 40 39 39 37 36 35 33 32 29 28 27 25 24 22 20 17 16 16 15 14 14 13 11 11 10 10 11 11 11 12 12 12 13 13 14 17 20 22 24 26 27 28 29 29 30 30 30 30 29 28 27 25 25 24 20 21 28 30 30 33 33 31 33 33 31 33 29 20 21
35 35 34 33 34 36 37 37 37 38 38 38 39 39 39 39 39 39 38 37 36 34 33 32 29 28 26 24 23 21 19 17 17 16 15 14 14 12 11 11 12 12 11 11 12 12 12 12 12 14 17 19 22 25 26 27 28 28 30 30 29 30 32 34 34 33 31 29 29 30 27 26 32 36 35 33 34 35 35 33 31 32 30 23 20
34 33 32 33 35 36 37 38 38 38 39 39 40 40 40 40 40 40 39 38 37 35 33 32 30 28 26 24 22 20 19 18 17 16 15 14 14 13 13 13 13 13 12 12 13 12 11 12 14 18 21 22 24 26 28 29 30 31 32 32 33 33 33 34 35 36 37 36 35 36 37 34 34 39 40 35 36 37 34 34 35 34 33 32 33
32 32 33 35 36 37 38 39 38 38 39 40 41 41 42 42 41 41 40 39 38 37 35 33 31 29 27 25 23 21 20 20 18 17 16 14 13 14 15 15 15 14 12 12 12 12 12 14 18 21 23 23 25 28 29 31 31 31 31 31 32 32 31 32 35 37 39 40 39 42 46 43 41 47 48 44 43 42 38 39 42 39 40 44 48
32 32 33 35 36 37 38 39 38 38 39 40 41 42 42 42 41 41 41 41 41 39 37 35 33 30 28 26 24 23 22 21 19 18 18 15 13 14 15 15 14 14 13 13 13 13 14 16 20 23 24 25 27 27 28 30 29 29 30 31 33 34 33 33 35 36 37 37 37 40 43 42 45 50 50 47 46 47 46 48 50 48 47 48 49
30 31 33 35 37 39 39 39 38 39 40 41 41 42 42 42 42 42 41 40 39 38 37 36 34 32 29 27 26 25 23 21 19 18 18 16 14 14 15 15 14 14 13 13 13 14 16 18 21 23 25 26 25 24 25 27 29 31 33 34 34 33 33 33 32 33 36 35 37 40 41 42 45 47 49 46 44 46 45 45 46 44 37 31 30
30 33 34 37 39 40 40 40 39 39 40 41 41 41 42 42 42 42 42 40 38 37 37 36 34 33 31 29 27 25 23 21 19 18 17 15 13 14 15 14 14 13 12 12 12 14 16 18 21 22 23 22 21 22 24 26 30 31 32 33 33 32 33 33 32 32 35 36 38 40 41 44 45 46 49 48 46 47 43 36 36 32 22 15 14
31 34 36 38 39 40 41 41 40 40 41 41 41 41 41 42 42 43 43 41 39 38 37 36 34 33 31 29 27 25 23 21 19 18 17 15 13 14 14 13 12 12 11 12 13 15 17 17 18 18 19 19 20 23 24 26 29 29 29 31 32 32 34 34 34 35 35 34 34 36 38 41 43 45 47 47 45 45 41 37 37 31 20 14 12
34 36 37 38 38 39 39 40 41 41 42 42 41 41 42 42 42 41 41 40 39 38 37 36 35 33 30 28 27 24 22 21 20 19 17 14 13 13 13 12 12 12 11 12 14 16 16 15 14 15 17 19 21 22 23 25 28 28 28 29 28 30 34 37 36 35 33 31 33 36 36 37 38 40 43 43 42 41 40 42 44 38 27 21 18
35 34 33 33 36 37 38 40 41 42 42 41 40 41 41 40 40 40 38 37 37 37 36 36 35 33 31 29 27 25 23 21 20 19 17 14 13 13 13 13 12 11 12 14 15 14 12 12 13 15 17 19 21 23 24 24 26 26 27 27 26 29 35 37 34 32 33 35 37 36 35 35 35 35 37 38 38 37 38 41 44 42 35 30 25
27 28 29 31 35 37 38 40 40 40 40 39 38 38 38 38 39 38 36 35 35 34 34 34 33 33 31 29 27 26 23 21 21 20 17 14 13 13 13 12 11 11 13 14 13 10 9 11 14 15 17 19 21 23 23 23 24 25 25 24 27 31 34 34 34 35 36 37 37 36 36 36 35 34 34 34 34 34 35 37 40 43 41 37 31
23 27 29 31 34 35 36 37 38 37 37 38 38 37 35 36 36 36 35 34 33 33 33 32 32 31 29 28 26 24 22 21 21 20 16 13 12 12 12 11 10 12 12 10 9 9 9 11 14 15 17 19 21 21 22 22 22 22 22 24 28 30 31 31 34 36 36 36 36 36 36 36 36 34 31 32 33 32 32 33 36 39 42 42 40
22 25 27 30 32 33 34 35 36 37 38 39 39 37 35 35 35 35 34 33 32 31 30 30 30 28 25 24 23 22 23 22 20 17 14 13 12 11 11 10 9 9 9 7 8 9 11 12 15 16 17 19 20 19 20 20 19 19 22 26 27 27 28 30 32 33 34 34 33 32 32 33 34 32 29 31 33 33 33 34 34 36 36 37 41
22 25 27 29 30 31 32 34 35 36 38 38 38 36 36 36 35 33 32 32 31 28 26 27 29 28 25 22 21 22 22 21 18 15 14 13 12 11 10 9 8 7 7 7 9 11 12 13 14 16 17 17 17 17 18 19 19 20 24 25 25 26 27 29 31 31 31 30 28 27 29 30 30 29 30 33 35 35 37 37 36 38 39 39 42
25 27 27 28 30 31 31 33 34 36 38 39 37 36 36 36 34 32 31 31 30 27 25 26 29 29 25 22 22 23 23 21 19 16 13 13 12 10 8 7 6 6 6 7 9 10 11 12 13 14 14 14 15 16 17 18 19 21 23 23 24 26 27 28 28 27 26 25 25 26 29 30 30 31 34 36 37 36 37 38 37 38 39 40 42
25 25 26 27 29 31 31 32 33 35 37 38 37 37 39 38 35 32 32 31 30 28 29 29 29 28 25 22 23 24 23 21 20 18 15 14 12 10 8 6 6 6 5 6 8 9 11 13 14 13 11 12 14 15 17 18 18 20 22 23 24 26 26 27 27 25 25 25 26 27 29 31 33 34 35 36 36 35 35 36 36 36 35 35 36
26 26 27 27 28 31 32 32 33 34 36 37 36 36 38 39 37 35 36 36 32 30 32 33 30 27 24 22 23 24 23 22 21 20 18 16 14 11 8 5 5 6 6 7 9 10 13 14 12 9 10 12 13 15 16 18 20 22 23 24 25 25 25 25 25 26 27 28 28 29 31 33 34 35 35 35 35 35 35 34 34 33 33 33 32
29 28 29 29 29 30 32 32 32 33 34 36 37 37 39 41 40 39 42 44 39 33 32 33 32 29 26 24 23 21 20 22 22 21 20 18 15 12 11 8 7 7 6 7 8 10 11 9 7 9 12 14 16 18 20 20 22 23 24 25 25 25 25 25 25 26 27 28 29 31 33 33 33 33 33 33 33 34 34 33 32 32 32 30 25
27 27 29 30 30 31 31 32 33 32 31 32 34 35 37 42 41 38 40 44 44 40 38 36 34 32 30 29 28 24 21 23 23 21 19 17 14 13 12 10 8 7 5 5 7 7 6 5 8 11 14 16 19 21 22 22 23 24 24 25 26 27 26 26 26 27 28 28 30 31 32 32 32 31 31 30 30 32 33 33 31 30 30 27 23
24 25 27 28 29 31 31 31 32 32 31 31 30 28 29 34 36 35 36 38 38 37 39 39 37 35 32 29 28 27 27 25 22 18 16 14 13 13 12 10 9 7 6 5 6 3 3 6 9 12 13 16 18 20 21 22 23 24 24 25 26 27 27 26 27 29 29 29 30 31 32 32 30 29 28 29 30 31 31 31 30 28 27 25 21
22 23 26 28 30 31 30 29 30 30 30 31 30 27 25 25 24 26 30 30 28 28 31 32 33 34 33 28 25 23 23 21 18 16 15 15 14 13 12 11 10 8 5 5 4 2 5 7 9 11 13 15 16 19 21 21 22 24 25 26 26 26 26 28 29 30 30 31 31 31 31 31 30 29 29 30 30 30 29 28 27 26 26 25 21
23 23 26 27 28 29 28 27 28 28 27 28 29 27 26 23 19 18 21 22 21 22 24 25 25 27 28 27 26 22 19 17 16 16 16 15 14 14 13 12 11 8 5 4 3 4 4 6 8 10 13 15 17 19 20 21 22 23 24 25 26 26 27 29 31 31 31 31 31 31 32 31 30 30 31 31 29 28 27 26 25 25 25 25 23
28 26 26 25 26 27 26 25 26 26 26 27 27 26 25 23 20 20 22 22 21 21 21 22 22 22 22 22 22 20 18 17 17 17 16 15 15 15 14 13 11 7 5 3 4 4 4 5 8 10 12 14 17 19 20 21 22 23 23 24 26 28 30 31 32 32 31 31 31 31 32 32 30 30 31 30 29 28 26 25 25 25 24 21 20
31 28 27 28 27 27 27 27 27 27 27 27 27 26 25 24 25 26 26 25 24 23 22 22 21 21 20 19 19 18 18 18 18 17 16 16 16 16 15 14 11 7 4 3 4 4 5 6 8 11 13 15 17 19 20 21 22 23 24 24 26 29 31 31 31 31 31 31 31 32 33 32 31 30 30 29 28 27 26 25 24 23 22 20 18
30 27 28 30 29 28 29 29 29 29 29 29 28 26 25 27 28 28 27 26 26 25 24 24 23 22 21 20 19 19 19 18 18 16 16 16 15 15 15 13 10 6 3 3 3 4 5 7 9 11 13 16 17 18 20 21 22 23 24 26 27 29 30 31 31 31 31 31 32 34 34 33 31 30 30 29 28 26 25 25 25 24 23 22 19
29 26 28 30 30 30 30 32 31 31 30 29 28 27 27 27 28 28 27 26 26 25 25 26 25 23 21 21 20 20 19 18 17 16 15 14 13 12 12 11 8 5 3 2 3 3 5 7 9 11 13 15 17 18 19 21 22 23 25 26 28 29 30 30 31 31 32 33 34 36 34 32 31 32 31 29 29 28 26 27 27 26 25 25 22
30 28 29 31 31 31 31 31 31 31 30 30 29 27 27 27 27 27 26 26 25 26 26 28 28 26 22 21 21 21 19 18 17 16 14 12 11 9 9 9 6 4 3 2 3 5 7 8 10 11 13 15 17 18 19 21 22 24 25 26 28 29 30 30 31 32 34 34 35 35 33 32 33 34 31 29 28 28 28 28 28 26 26 27 26
32 30 30 32 31 31 30 30 30 30 30 30 29 28 28 27 27 26 25 26 27 27 26 27 28 26 24 23 24 24 23 21 19 16 13 11 10 9 8 7 5 3 2 3 5 7 9 10 11 12 14 16 17 19 20 22 23 24 26 27 28 29 29 30 31 33 34 34 34 34 32 32 34 35 32 29 28 28 28 28 28 26 25 25 22
27 27 29 31 31 30 29 29 29 30 29 28 28 28 28 28 27 26 25 26 26 26 25 25 25 25 25 26 26 26 24 21 18 15 13 11 10 9 8 6 5 3 2 3 6 8 9 10 12 13 15 16 18 20 21 22 24 25 26 27 28 29 30 30 32 34 34 35 35 34 32 33 36 38 35 30 28 29 29 28 28 27 25 21 20
25 25 29 31 30 29 29 30 29 29 29 28 27 27 27 27 27 27 27 26 25 24 24 24 24 25 27 28 27 26 23 20 18 15 13 11 10 9 7 5 4 2 2 4 6 7 8 10 11 14 15 17 18 20 21 22 23 24 25 26 27 29 30 31 32 34 35 36 35 33 32 35 39 38 35 32 31 30 30 30 29 29 26 24 24
24 24 27 30 30 29 30 29 29 29 29 29 28 27 26 27 28 28 28 27 26 25 24 24 25 27 28 27 25 24 22 21 18 16 13 12 11 9 7 5 3 2 2 4 5 6 8 10 12 13 15 17 18 20 21 22 23 24 26 27 27 28 30 31 32 34 37 38 36 33 34 38 40 37 34 35 35 33 31 30 30 29 28 27 27
26 26 27 29 31 30 29 28 28 30 30 29 29 29 29 29 29 29 29 28 28 27 25 24 26 28 26 22 20 20 21 19 18 16 14 13 11 9 7 5 3 1 1 3 5 7 9 11 12 13 15 17 18 20 21 22 24 25 26 27 28 29 30 32 33 36 38 38 36 34 36 40 41 38 36 36 35 32 30 30 30 30 28 27 28
27 27 28 29 29 29 28 28 29 30 30 30 30 31 32 31 30 29 29 28 28 28 27 27 27 26 23 21 20 20 19 18 17 15 14 12 10 9 7 5 3 1 1 3 5 7 9 11 12 13 14 16 17 19 20 22 23 25 26 27 28 30 31 32 34 37 39 38 36 36 39 41 41 39 38 37 35 33 32 31 30 29 29 29 28
26 26 26 27 27 26 27 28 29 29 29 31 31 31 31 30 29 29 29 28 28 29 29 29 28 26 24 22 22 21 19 17 16 15 13 12 10 8 6 4 2 1 1 3 4 6 8 10 11 12 14 15 16 17 18 20 22 23 25 26 28 30 32 33 36 39 40 39 37 37 40 42 41 39 38 37 36 35 33 32 31 30 29 29 27
26 26 26 25 25 25 26 27 27 28 29 30 30 29 28 28 28 28 28 28 28 28 29 29 28 27 25 23 22 20 19 18 16 14 13 11 9 7 5 3 2 1 1 3 4 6 7 8 10 12 14 15 15 16 17 19 21 22 24 25 27 30 32 34 37 40 40 38 36 37 40 41 40 39 38 38 37 35 33 33 32 31 29 28 25
25 26 26 25 25 25 25 25 27 28 28 29 30 29 28 27 27 27 28 28 29 29 29 29 28 27 25 24 22 20 19 18 16 14 13 11 9 7 5 3 1 1 2 3 4 6 7 9 11 13 15 16 16 16 17 19 21 22 23 24 26 29 31 34 37 39 39 37 37 38 40 40 40 40 40 39 37 35 34 34 33 31 30 29 28
26 26 26 26 26 26 26 27 28 28 27 27 28 28 28 28 28 28 28 29 29 29 29 28 27 26 25 24 23 21 19 18 16 14 12 10 8 6 4 2 1 1 2 4 5 7 8 10 11 13 15 16 16 16 18 19 21 23 24 25 26 29 31 34 37 38 38 37 37 39 40 39 39 40 40 39 37 36 35 34 33 33 32 30 29
27 26 26 26 27 27 27 28 28 27 26 26 27 27 27 28 28 28 28 28 28 29 29 28 27 26 25 23 21 20 18 16 14 13 10 8 6 5 3 2 1 2 3 4 6 7 9 10 12 14 15 15 16 16 18 20 22 23 25 26 27 29 32 35 37 37 37 37 38 38 38 38 38 39 40 39 37 37 35 34 33 34 32 29 28
26 26 26 26 26 26 27 27 27 26 27 28 29 28 27 27 28 28 28 28 28 28 28 27 26 25 24 22 20 19 17 15 13 11 9 7 5 3 2 1 2 3 4 5 7 8 9 11 12 13 15 15 15 16 18 20 21 24 25 27 28 30 32 34 36 36 37 38 39 38 37 38 39 39 39 39 38 37 36 35 34 34 33 29 27
24 26 26 25 24 24 26 29 30 30 30 32 31 29 27 28 28 28 29 29 28 27 27 26 24 23 22 21 19 17 15 13 12 10 8 6 4 2 1 0 2 4 5 7 8 9 10 11 12 14 15 16 16 16 17 19 21 23 26 27 29 30 32 34 34 35 36 38 38 37 36 38 39 39 39 39 38 38 37 36 35 35 33 31 29
25 25 25 25 26 28 30 32 33 32 32 33 33 31 29 29 29 29 28 28 28 27 25 24 23 22 20 19 18 16 14 12 11 9 7 5 3 2 1 2 3 5 6 8 9 10 11 12 13 15 16 17 17 16 17 19 20 23 25 28 28 29 31 33 34 34 36 38 37 35 35 37 38 38 39 39 39 38 37 36 36 35 32 31 31
Wind_Direction
214 215 215 215 215 216 216 214 212 211 210 210 209 208 207 205 203 201 199 198 198 197 197 198 200 201 203 205 207 209 211 214 218 223 227 230 234 239 240 243 250 255 259 261 263 267 272 276 282 287 291 293 292 289 285 281 278 275 271 271 271 266 269 274 275 284 287 289 292 293 296 300 301 303 306 305 307 307 303 301 300 297 295 293 291
215 215 215 214 216 217 215 213 211 210 209 209 209 208 206 205 202 199 197 197 197 197 198 199 200 202 203 205 207 209 211 213 216 219 222 226 230 234 238 243 250 255 259 264 269 273 277 281 287 292 295 294 291 288 284 281 280 279 274 270 270 267 265 272 276 281 287 291 294 295 297 299 298 300 306 305 304 305 303 301 300 297 294 292 290
216 214 214 214 216 216 214 212 211 209 209 209 208 207 205 203 200 198 196 195 196 198 199 199 199 200 203 205 206 208 209 211 214 217 220 223 227 230 236 243 249 255 260 264 270 274 279 284 290 294 296 295 291 287 285 284 282 278 275 270 268 269 265 265 271 274 280 288 292 294 297 298 295 296 301 301 300 300 299 298 298 296 293 291 290
215 214 214 215 215 214 213 212 210 208 209 209 208 206 204 201 199 197 196 195 195 197 198 199 199 200 202 204 205 206 208 211 212 215 218 221 225 229 235 243 248 255 260 265 271 275 280 287 292 295 294 291 289 288 287 287 283 278 274 271 267 267 266 260 259 262 268 278 285 288 291 294 295 295 297 298 299 298 296 296 295 293 293 291 289
213 213 212 212 212 212 211 210 208 208 208 208 207 205 203 201 199 197 196 195 194 195 196 198 199 201 202 203 205 206 208 211 211 213 217 219 223 229 235 244 251 255 260 265 270 275 281 286 289 291 291 287 287 288 289 288 283 278 273 272 269 266 265 259 252 253 257 265 276 284 286 287 290 293 293 295 298 298 296 296 293 289 290 290 288
212 211 210 209 209 209 209 208 208 207 207 206 205 204 202 200 199 197 197 195 194 194 196 197 199 201 202 203 204 206 208 210 212 213 216 219 223 230 237 244 250 255 260 266 271 276 281 284 287 289 287 285 286 287 288 285 281 278 274 273 272 267 261 255 251 252 256 260 267 275 281 283 284 288 290 290 292 294 294 295 294 290 288 287 288
209 209 208 208 207 207 206 207 207 206 205 204 202 201 200 200 199 198 197 196 195 195 196 197 199 201 202 202 203 206 207 208 211 212 214 219 224 230 237 243 249 254 260 265 271 278 283 283 285 286 285 285 286 286 284 281 278 275 273 272 269 263 254 252 253 253 254 259 262 263 271 277 277 280 286 289 288 287 288 290 292 293 290 284 285
207 206 205 206 207 207 206 205 205 204 202 200 199 199 199 199 198 197 197 197 197 197 197 197 198 199 200 201 202 203 205 206 209 210 212 219 223 228 234 239 245 252 258 268 275 282 284 283 285 286 288 288 284 280 278 276 274 272 270 269 265 260 257 256 255 254 251 256 260 259 264 271 273 274 280 283 283 283 286 286 284 289 291 286 283
204 203 203 205 207 206 204 202 201 200 198 197 197 197 196 196 196 196 196 197 197 197 197 197 196 196 196 198 199 201 204 206 206 208 211 215 219 225 232 235 242 252 261 271 279 283 284 286 289 289 288 285 278 274 274 273 274 275 275 275 271 266 264 260 255 253 251 252 256 259 263 266 268 269 271 273 273 277 285 284 277 281 287 286 284
201 201 203 206 205 202 200 198 197 195 195 195 194 193 193 193 193 194 194 195 196 196 196 195 195 194 193 195 198 201 205 204 202 207 210 212 217 221 227 234 240 253 264 271 276 280 283 285 287 283 279 279 276 274 276 276 276 278 279 280 279 276 273 270 265 259 257 257 256 257 258 260 262 262 266 272 273 274 281 281 276 280 285 284 284
200 201 204 204 201 197 195 194 193 193 193 193 192 190 191 191 191 192 192 193 194 193 193 192 192 193 194 195 199 201 203 200 199 205 208 210 218 222 225 234 244 252 259 264 267 273 279 280 281 280 279 281 281 279 281 280 278 279 281 282 281 280 279 278 277 274 269 269 268 264 259 262 268 269 272 277 277 276 279 280 278 283 285 281 284
200 202 202 200 196 194 193 191 190 191 191 190 189 189 189 188 188 189 189 190 191 190 191 191 190 192 194 195 199 201 200 197 197 202 203 203 212 226 233 237 244 249 252 257 263 270 276 277 278 282 283 284 284 283 283 282 281 281 283 284 283 281 281 279 279 279 278 278 278 275 271 271 276 278 277 279 280 279 279 278 278 282 283 280 280
199 200 198 195 193 192 191 189 189 189 189 189 188 187 186 186 187 188 188 189 189 189 189 190 189 190 193 194 198 200 197 195 197 198 198 197 202 218 232 234 239 249 252 256 263 268 275 280 283 286 288 289 288 285 282 282 283 283 281 280 279 279 278 278 278 279 281 283 283 282 281 280 279 279 279 278 279 279 277 275 275 276 277 277 277
197 196 194 193 192 191 190 189 188 188 188 187 186 185 186 186 186 187 187 187 187 187 187 188 188 190 193 195 197 199 195 194 196 195 195 198 200 209 224 233 240 247 248 250 260 268 274 280 284 287 290 289 287 286 286 285 284 284 284 283 283 281 279 279 279 279 279 278 276 276 278 278 276 276 279 277 273 272 272 271 271 270 269 271 273
194 194 192 192 192 190 189 189 187 187 186 185 185 185 185 186 185 186 187 187 188 188 187 188 188 189 192 194 195 197 195 192 194 197 197 197 199 206 219 230 234 238 243 249 262 272 277 281 284 287 289 287 284 284 288 291 291 292 293 292 289 286 283 280 280 280 279 276 273 273 275 276 275 276 278 276 269 267 267 266 267 268 267 269 271
191 191 191 192 192 191 189 188 186 186 185 184 184 185 185 185 185 185 185 186 186 187 187 187 187 187 189 192 194 195 193 191 195 199 199 196 198 207 216 224 230 238 247 256 264 272 279 285 285 284 283 283 285 288 292 296 299 298 294 291 290 289 287 287 286 286 286 285 283 282 282 281 281 281 282 280 275 273 272 268 265 263 262 264 267
191 192 194 194 193 192 190 187 186 185 184 184 185 185 185 185 185 184 183 183 183 184 185 186 187 188 188 189 193 193 190 192 197 200 199 196 198 208 216 223 232 241 252 260 267 275 284 287 284 282 282 283 289 294 298 298 298 295 295 296 297 296 294 294 294 293 291 290 288 287 287 286 286 286 286 285 283 282 281 275 270 266 260 258 263
194 194 197 196 193 192 190 188 186 185 185 186 186 185 185 184 185 185 184 183 183 184 184 184 185 188 188 187 190 191 189 192 198 201 197 193 198 209 216 222 230 243 255 264 272 281 287 287 281 280 285 290 294 297 299 299 299 301 303 303 301 297 297 299 300 298 295 293 293 293 292 291 290 289 287 286 285 283 279 275 276 277 271 265 270
197 197 198 196 193 192 190 189 188 187 187 188 187 185 185 184 185 185 185 184 183 183 182 181 181 185 187 186 187 189 190 191 196 197 192 190 200 209 214 223 231 242 257 267 274 281 285 285 283 285 291 295 296 298 300 304 306 307 306 305 301 298 301 303 302 302 304 306 306 303 299 296 294 292 289 286 284 281 275 272 272 270 265 262 266
200 198 196 192 191 191 191 190 191 190 189 188 187 186 185 184 183 183 184 183 182 180 179 178 179 181 183 184 185 188 190 191 191 190 185 187 199 207 215 225 232 244 261 269 272 277 283 286 289 292 294 295 296 301 306 308 309 309 306 304 300 299 303 305 306 310 313 312 309 306 304 304 302 298 295 290 286 281 274 269 267 263 260 261 260
196 193 190 189 190 191 191 192 192 191 189 186 185 185 185 184 183 182 181 180 177 175 174 174 175 178 181 182 184 188 190 187 185 182 180 186 198 207 217 225 233 250 262 266 268 276 288 293 292 292 293 296 301 307 310 311 310 309 305 301 299 301 306 310 312 314 313 310 309 310 311 311 307 302 299 297 294 290 281 273 266 262 258 256 256
191 189 188 189 190 191 192 193 191 189 187 184 183 183 183 184 183 180 179 177 174 171 171 171 171 174 178 182 184 185 183 179 178 176 176 185 196 205 217 226 238 252 261 268 277 289 296 292 289 289 293 300 307 310 310 311 311 307 303 302 304 307 311 312 312 312 312 311 313 313 313 312 308 303 299 298 298 298 294 286 277 270 262 256 255
192 190 188 188 190 191 191 190 189 187 186 184 182 180 180 181 181 180 178 174 170 169 169 169 168 169 174 179 180 178 175 173 173 173 175 185 195 203 216 230 241 252 267 280 284 291 293 284 282 291 299 306 309 310 310 311 310 306 305 308 311 312 313 312 312 311 311 312 312 310 309 309 306 302 299 299 300 301 299 296 292 287 282 275 268
192 191 190 189 190 191 189 188 188 186 185 184 181 178 177 177 177 178 178 174 169 167 167 168 167 166 168 171 172 172 171 170 171 174 176 182 190 202 217 231 243 253 269 279 282 289 289 281 285 298 305 307 308 309 311 311 309 307 309 312 314 316 316 314 312 311 309 309 308 306 306 307 304 301 301 302 303 302 298 296 294 292 292 289 284
192 191 190 190 190 189 187 186 187 186 185 183 180 177 175 174 174 177 177 174 169 165 166 170 170 167 166 166 167 169 169 167 169 174 178 182 188 198 210 223 244 257 263 275 287 290 284 283 295 304 306 308 311 312 314 312 310 310 312 314 316 317 316 313 310 309 306 305 305 304 304 306 304 302 302 303 303 302 299 297 296 295 294 291 287
191 190 189 190 189 185 184 184 185 186 185 185 183 179 175 173 173 174 175 174 171 168 169 170 170 169 168 165 164 166 168 170 170 170 173 179 182 187 197 218 243 250 257 276 282 276 272 282 296 302 306 311 311 310 311 310 310 312 314 316 316 316 315 313 310 308 305 304 305 303 303 304 303 301 302 302 301 301 300 299 298 298 297 295 290
189 189 189 189 187 186 185 184 183 183 184 185 184 181 177 175 173 172 173 173 171 169 169 169 170 170 168 165 164 164 166 170 169 167 168 169 167 172 186 208 224 229 251 271 269 267 273 282 294 307 317 320 318 317 318 317 317 318 317 317 317 316 315 312 308 306 305 304 303 302 302 303 302 300 301 300 299 299 300 299 299 299 299 297 293
191 189 188 186 187 188 188 186 183 183 184 185 184 181 179 177 176 177 178 175 172 169 170 171 173 171 168 165 163 161 166 174 173 169 167 165 163 171 180 185 204 224 247 258 255 264 276 288 311 332 337 336 333 331 330 326 323 321 319 319 319 317 315 313 310 308 306 304 304 303 303 302 301 300 300 299 297 299 300 299 298 297 297 295 290
192 188 186 185 187 189 189 188 187 184 184 186 187 186 184 181 178 178 180 179 177 176 176 176 177 174 170 167 165 164 171 177 172 165 162 160 161 169 172 176 196 213 218 232 248 264 286 323 346 347 344 339 334 331 331 327 322 320 320 321 321 319 318 316 314 312 310 308 305 304 303 303 301 300 301 299 296 298 301 300 299 296 294 291 286
191 189 187 187 188 188 188 188 187 185 183 183 185 185 185 184 181 177 178 180 182 182 181 180 178 175 171 170 171 171 168 167 166 166 166 163 159 158 158 164 175 174 177 215 244 273 354 3 357 349 340 334 330 327 324 320 317 318 321 322 320 319 319 318 316 314 312 309 307 305 304 303 301 301 302 301 299 299 300 299 298 295 292 289 286
190 191 191 192 191 188 187 186 185 184 183 181 178 174 172 177 180 178 176 177 179 181 181 178 175 173 169 165 164 164 159 157 163 169 164 158 154 149 147 152 152 148 168 211 217 68 32 4 350 344 337 332 327 322 317 315 316 318 319 319 319 320 320 318 317 316 313 310 308 307 307 304 301 302 305 303 301 300 300 300 297 293 290 286 283
194 195 195 194 190 187 186 184 182 182 180 179 177 172 164 161 164 166 166 166 164 166 166 164 163 165 164 157 153 155 159 160 163 160 153 150 149 146 145 144 141 145 172 187 134 71 31 357 342 338 335 329 324 319 316 315 315 316 315 315 317 320 320 318 317 315 312 310 309 309 309 305 301 303 306 305 303 301 301 301 299 295 292 288 282
201 199 194 189 186 185 185 183 182 182 179 177 178 174 167 160 153 151 153 152 149 149 151 151 151 152 154 154 154 156 160 160 156 152 150 147 144 140 137 131 129 144 175 152 89 54 23 357 340 334 330 323 319 317 315 313 313 314 314 314 316 317 318 317 317 314 311 310 310 310 309 305 303 306 308 306 304 303 302 302 300 296 294 290 284
205 202 194 186 182 183 183 182 182 182 180 179 178 174 169 162 153 148 148 148 147 147 149 150 149 148 150 155 158 159 158 154 152 150 147 142 141 143 141 136 133 143 157 112 71 39 12 354 341 336 331 324 319 315 312 311 314 315 316 317 316 315 315 316 316 314 313 313 312 311 309 306 305 309 311 308 306 305 303 302 301 298 294 292 288
205 203 195 188 183 182 182 183 182 181 181 180 178 173 167 161 156 153 151 148 146 146 148 151 153 152 150 153 157 158 155 151 149 147 143 141 146 152 154 152 150 149 134 84 56 30 5 349 342 340 333 324 318 314 311 312 316 318 318 318 316 314 315 316 315 315 315 315 314 312 309 307 308 312 313 310 308 307 305 303 302 299 294 291 288
202 198 192 188 185 183 182 183 183 182 180 178 175 170 164 160 157 153 151 148 144 142 143 146 148 149 149 153 155 155 153 150 147 144 142 146 153 158 157 153 149 145 128 83 42 17 5 355 346 341 331 320 317 317 316 318 320 321 320 317 313 313 314 315 315 316 316 315 315 313 309 308 312 316 316 312 309 308 306 305 303 298 293 291 289
198 195 190 188 186 182 181 182 181 180 176 172 169 166 161 159 156 151 147 145 141 138 137 139 139 140 143 150 155 154 149 144 140 137 142 152 158 158 154 149 142 133 111 65 25 9 9 4 351 339 329 322 322 325 325 325 325 323 321 317 314 313 315 314 315 317 316 314 314 312 309 310 315 319 318 314 311 309 308 306 305 300 295 294 293
198 196 191 187 183 179 177 176 176 173 170 168 166 163 158 155 153 148 144 142 139 138 138 139 140 141 141 145 151 150 146 143 144 145 149 155 153 145 141 137 127 114 85 40 21 14 11 3 352 341 335 331 330 333 333 331 329 325 321 318 317 317 317 316 317 318 317 315 314 312 311 314 319 322 319 314 310 309 308 307 307 304 299 296 293
198 195 188 182 178 174 173 171 169 167 166 165 164 161 155 151 148 144 142 141 140 141 142 143 146 148 147 146 149 150 150 152 156 156 154 152 149 141 135 129 118 104 68 31 23 15 6 358 350 344 340 337 337 338 338 335 330 326 322 320 320 320 319 319 319 319 319 317 315 314 315 318 322 323 320 314 310 309 308 308 308 306 302 295 290
193 187 180 176 172 170 169 167 165 164 163 162 161 158 153 149 146 144 144 144 144 146 147 148 151 156 157 157 159 161 162 161 161 160 157 154 151 143 135 132 127 105 53 27 20 8 356 352 349 345 343 343 342 343 342 338 332 328 326 324 322 321 320 319 319 319 319 319 316 315 317 322 325 324 320 317 314 312 310 309 309 306 302 297 294
182 174 172 170 167 165 164 164 163 162 160 158 156 153 150 147 146 145 146 147 147 148 150 152 156 161 165 166 167 171 170 166 163 164 162 157 153 148 143 145 145 118 39 9 2 353 346 347 347 344 344 347 347 346 344 341 336 333 330 327 324 320 319 319 319 320 320 320 318 317 321 325 327 324 321 319 317 314 312 311 310 308 305 301 298
172 168 167 166 163 162 162 160 158 155 153 152 152 151 150 149 149 149 148 148 149 148 148 151 156 160 163 164 165 168 169 165 161 162 161 156 153 151 150 154 156 130 13 345 343 341 340 343 344 344 345 348 349 347 345 343 341 337 333 329 325 321 318 319 320 321 321 320 318 320 325 327 327 325 322 320 319 316 314 314 313 311 309 307 302
168 165 163 162 161 161 159 155 153 152 151 152 152 152 152 151 150 149 147 146 147 147 146 148 152 155 156 157 161 164 164 160 158 159 158 155 152 152 154 160 162 144 337 332 336 338 339 341 342 344 347 350 350 348 347 345 343 340 335 329 324 320 318 318 319 321 322 321 320 323 327 328 328 327 325 323 322 319 317 317 316 314 312 311 307
159 156 155 154 154 153 152 151 151 151 151 150 149 150 150 148 147 146 145 144 145 146 147 148 150 149 149 153 159 160 158 156 158 158 155 152 152 154 156 158 152 133 341 342 345 344 342 341 342 346 352 354 353 352 351 351 348 344 338 331 323 319 318 319 320 322 323 322 322 326 329 329 329 328 326 325 325 323 321 321 320 317 315 313 309
149 147 146 145 145 146 147 148 147 146 145 144 143 144 145 144 143 143 143 142 143 146 147 149 150 149 149 153 156 156 155 156 158 156 154 152 153 154 154 154 147 87 10 360 357 353 348 345 346 350 354 357 356 355 356 356 355 352 346 335 324 318 318 320 322 323 324 324 325 328 329 329 329 328 328 327 327 325 324 323 322 320 317 314 310
142 142 141 140 140 141 142 143 144 143 142 140 138 137 138 138 139 140 141 142 144 146 148 151 153 153 153 154 154 154 155 157 156 154 152 151 151 151 152 150 131 59 22 7 360 358 356 355 355 355 355 355 355 356 358 359 358 356 351 342 331 324 323 324 325 326 327 328 330 330 330 330 329 329 328 328 328 327 326 324 324 323 320 316 313
137 137 138 138 138 137 138 139 139 138 137 136 134 133 133 135 136 138 141 144 146 148 151 153 155 155 154 153 154 155 156 156 154 151 150 149 149 150 149 140 115 60 26 10 1 359 359 1 2 1 357 354 353 355 357 359 358 356 352 346 339 332 329 329 328 329 331 333 333 333 332 331 330 330 330 330 329 329 328 327 326 326 323 319 317
134 134 135 136 136 135 136 136 136 134 133 132 131 130 131 133 135 138 141 143 146 149 152 153 154 154 153 153 154 154 154 152 150 148 147 147 146 146 145 128 74 34 20 11 2 358 360 3 4 2 358 355 353 354 356 357 357 355 352 349 345 339 334 332 331 333 335 337 336 335 334 333 332 332 332 332 331 331 330 329 329 328 325 320 317
131 131 132 134 135 135 136 136 135 134 132 131 129 129 130 133 135 138 141 144 146 149 152 152 152 152 152 151 152 152 151 149 147 146 145 145 145 146 146 105 25 8 4 2 358 357 359 2 2 1 359 356 353 352 354 355 355 354 352 351 348 342 336 334 335 337 340 340 338 336 336 336 335 335 335 334 333 333 332 331 331 330 328 324 321
124 126 128 129 130 131 131 130 130 130 131 131 129 128 129 132 135 138 142 144 146 148 151 152 152 152 151 150 150 149 148 147 145 143 143 147 155 163 173 360 357 354 354 355 353 353 355 357 358 359 358 357 355 353 352 353 354 354 353 352 348 341 336 336 338 341 342 342 340 338 338 338 338 338 338 337 336 336 335 334 334 334 332 329 327
116 119 121 121 122 123 124 124 125 127 129 130 130 130 130 133 136 139 143 145 146 148 151 151 151 150 149 148 147 147 146 144 143 145 149 158 173 192 258 329 342 347 347 347 348 350 352 354 355 356 356 356 355 353 351 352 355 356 354 351 346 339 337 339 341 342 343 343 341 340 340 341 340 340 340 340 339 338 337 336 337 336 335 333 330